Aérodrome :
LOGIN :

S'inscrire | Disclaimer

   EN    FR    IT 

 










Légende :    VFR   VFR Marginal   IFR   IFR Intensif   IFR Très Intensif
Visi : 
Plafond : 
>= 8 km
>= 3000ft
5 à 8 km
1000 à 3000 ft
1500m à 5 km
500 à 1000 ft
800 à 1500m
200 à 500 ft
< 800m
< 200 ft
Symboles :   Orages  Brouillard  Fortes neiges  Fortes précipitations  Vent > 20 kt
SIGMETs :   Divers  Orages  Givrage  Turbulence  Onde Orograph.  Cendres Volcan.






- Altitude de l'aérodrome : 39 ft
- Code IATA : TRS


LIPQ - Friuli Venezia Giulia Apt. Trieste

DERNIER METAR :
  • 191250Z AUTO VRB03KT 9999 FEW058/// 16/04 Q1014

METARs EXPIRÉS :
  • 191220Z AUTO 14005KT 100V190 9999 SCT066/// 16/02 Q1014
  • 191150Z AUTO VRB03KT 9999 FEW062/// 16/02 Q1014
  • 191120Z AUTO 03004KT 270V070 9999 FEW073/// 15/01 Q1014
  • 191050Z AUTO 33004KT 280V020 9999 BKN083/// BKN170/// 15/03 Q1015
  • 191020Z AUTO 32006KT 290V350 9999 FEW100/// 15/05 Q1015

TAF TAF LIPQ
Valide du 19 à 12h jusqu'au 20 à 12h UTC


191100Z 1912/2012 VRB05KT 9999 FEW020 SCT060
TEMPO 1916/1922 RA



MET'MAP, la Météo Aéronautique d'un coup d'oeil ! - Copyright ORBIFLY Décembre 2007 - Disclaimer

ORBIFLY MET'MAP TEAM :

Programmation & Développement : Alexandra Zaïnal
Sur une idée originale de : Baudouin d'Aumeries
Assistance à la programmation : Marc-Olivier Méhu
Soutien technique & logistique : Manuel Goepfert

Contact : metmap@orbifly.com




SOURCES & CREDITS :

   NOAA